�������l�o���
Date,Time,MP-1(��Sv/h),MP-2(��Sv/h),MP-3(��Sv/h),MP-4(��Sv/h),MP-5(��Sv/h),MP-6(��Sv/h),MP-7(��Sv/h),MP-8(��Sv/h),����,����(m/s),���J
2021/08/04,00:00,0.608,0.912,0.577,1.098,0.788,0.369,0.636,0.594,��,5.7,��
2021/08/04,00:10,0.610,0.912,0.578,1.096,0.787,0.369,0.636,0.594,��,5.2,��
2021/08/04,00:20,0.609,0.914,0.579,1.096,0.788,0.370,0.635,0.594,��쐼,5.6,��
2021/08/04,00:30,0.611,0.911,0.577,1.097,0.787,0.369,0.635,0.595,��쐼,5.3,��
2021/08/04,00:40,0.610,0.911,0.577,1.096,0.787,0.369,0.635,0.595,��쐼,5.1,��
2021/08/04,00:50,0.608,0.912,0.578,1.097,0.787,0.369,0.635,0.594,��쐼,5.1,��
2021/08/04,01:00,0.612,0.910,0.578,1.097,0.788,0.371,0.636,0.594,��쐼,5.3,��
2021/08/04,01:10,0.610,0.914,0.579,1.096,0.789,0.368,0.639,0.594,��쐼,6.1,��
2021/08/04,01:20,0.609,0.911,0.580,1.098,0.788,0.369,0.635,0.593,��쐼,5.3,��
2021/08/04,01:30,0.609,0.910,0.578,1.096,0.785,0.370,0.637,0.594,��쐼,5.5,��
2021/08/04,01:40,0.610,0.913,0.579,1.095,0.787,0.369,0.637,0.593,��쐼,5.9,��
2021/08/04,01:50,0.610,0.913,0.580,1.098,0.786,0.368,0.636,0.594,��쐼,6.3,��
2021/08/04,02:00,0.610,0.908,0.580,1.095,0.789,0.370,0.636,0.594,��쐼,6.0,��
2021/08/04,02:10,0.609,0.913,0.579,1.097,0.788,0.370,0.637,0.595,��쐼,6.5,��
2021/08/04,02:20,0.609,0.911,0.578,1.098,0.787,0.369,0.637,0.595,��쐼,6.5,��
2021/08/04,02:30,0.610,0.915,0.578,1.098,0.786,0.369,0.637,0.593,��쐼,6.2,��
2021/08/04,02:40,0.611,0.914,0.581,1.095,0.787,0.369,0.638,0.594,��쐼,5.6,��
2021/08/04,02:50,0.610,0.912,0.579,1.097,0.785,0.370,0.637,0.595,��쐼,5.5,��
2021/08/04,03:00,0.611,0.913,0.577,1.099,0.788,0.371,0.637,0.594,��,5.7,��
2021/08/04,03:10,0.610,0.914,0.577,1.095,0.790,0.370,0.637,0.593,��쐼,6.1,��
2021/08/04,03:20,0.608,0.912,0.578,1.098,0.787,0.369,0.637,0.595,��쐼,5.4,��
2021/08/04,03:30,0.610,0.912,0.578,1.098,0.787,0.369,0.637,0.594,��쐼,5.0,��
2021/08/04,03:40,0.610,0.912,0.576,1.097,0.789,0.369,0.637,0.594,��,4.6,��
2021/08/04,03:50,0.608,0.913,0.578,1.096,0.788,0.368,0.637,0.594,��쐼,4.0,��
2021/08/04,04:00,0.610,0.915,0.579,1.100,0.786,0.369,0.637,0.594,��쐼,3.7,��
2021/08/04,04:10,0.609,0.913,0.579,1.096,0.786,0.370,0.636,0.594,��,3.4,��
2021/08/04,04:20,0.610,0.912,0.580,1.096,0.784,0.369,0.637,0.594,��쐼,3.5,��
2021/08/04,04:30,0.609,0.912,0.577,1.099,0.786,0.370,0.635,0.594,��쐼,2.9,��
2021/08/04,04:40,0.611,0.910,0.578,1.098,0.788,0.368,0.635,0.594,��쐼,2.0,��
2021/08/04,04:50,0.610,0.910,0.580,1.099,0.786,0.369,0.636,0.594,��쐼,2.5,��
2021/08/04,05:00,0.610,0.914,0.578,1.097,0.788,0.371,0.637,0.593,��쐼,2.3,��
2021/08/04,05:10,0.610,0.913,0.578,1.100,0.787,0.369,0.637,0.594,��,1.9,��
2021/08/04,05:20,0.611,0.912,0.578,1.098,0.789,0.370,0.637,0.594,��쐼,2.3,��
2021/08/04,05:30,0.609,0.913,0.579,1.100,0.786,0.369,0.637,0.595,��,1.5,��
2021/08/04,05:40,0.610,0.912,0.580,1.098,0.787,0.369,0.637,0.594,��,1.2,��
2021/08/04,05:50,0.610,0.912,0.579,1.098,0.786,0.368,0.638,0.593,-,CALM,��
2021/08/04,06:00,0.609,0.912,0.579,1.096,0.786,0.368,0.636,0.594,-,CALM,��
2021/08/04,06:10,0.610,0.912,0.578,1.099,0.789,0.369,0.636,0.596,-,CALM,��
2021/08/04,06:20,0.609,0.912,0.580,1.097,0.788,0.368,0.637,0.596,�k,0.8,��
2021/08/04,06:30,0.611,0.913,0.580,1.096,0.786,0.369,0.638,0.595,�k�k��,0.6,��
2021/08/04,06:40,0.610,0.912,0.580,1.098,0.789,0.369,0.636,0.594,�k��,1.5,��
2021/08/04,06:50,0.611,0.911,0.577,1.098,0.788,0.368,0.636,0.595,���k��,1.7,��
2021/08/04,07:00,0.611,0.912,0.578,1.097,0.785,0.369,0.636,0.594,-,CALM,��
2021/08/04,07:10,0.610,0.910,0.577,1.099,0.786,0.370,0.636,0.595,�k�k��,0.9,��
2021/08/04,07:20,0.612,0.912,0.579,1.098,0.785,0.370,0.639,0.594,�k�k��,0.8,��
2021/08/04,07:30,0.608,0.909,0.578,1.098,0.788,0.369,0.637,0.594,���k��,0.9,��
2021/08/04,07:40,0.611,0.913,0.579,1.098,0.785,0.370,0.636,0.595,��,0.6,��
2021/08/04,07:50,0.609,0.912,0.578,1.097,0.787,0.370,0.638,0.595,���쓌,0.8,��
2021/08/04,08:00,0.610,0.910,0.578,1.099,0.785,0.368,0.640,0.596,���쓌,0.9,��
2021/08/04,08:10,0.611,0.912,0.578,1.100,0.787,0.368,0.639,0.597,���쓌,0.9,��
2021/08/04,08:20,0.610,0.911,0.579,1.100,0.788,0.369,0.640,0.595,�쓌,1.5,��
2021/08/04,08:30,0.610,0.909,0.579,1.098,0.788,0.369,0.638,0.594,�쓌,1.7,��
2021/08/04,08:40,0.609,0.913,0.579,1.100,0.788,0.369,0.640,0.593,�쓌,1.5,��
2021/08/04,08:50,0.611,0.910,0.578,1.101,0.786,0.369,0.638,0.594,��쓌,2.0,��
2021/08/04,09:00,0.613,0.912,0.579,1.099,0.789,0.370,0.641,0.593,�쓌,3.5,��
2021/08/04,09:10,0.614,0.912,0.578,1.100,0.788,0.369,0.638,0.595,�쓌,3.9,��
2021/08/04,09:20,0.612,0.913,0.581,1.098,0.788,0.369,0.638,0.595,�쓌,4.2,��
2021/08/04,09:30,0.611,0.913,0.578,1.099,0.787,0.369,0.639,0.594,�쓌,3.9,��
2021/08/04,09:40,0.611,0.915,0.578,1.099,0.789,0.371,0.638,0.594,��쓌,4.4,��
2021/08/04,09:50,0.613,0.916,0.581,1.100,0.788,0.368,0.640,0.593,��쓌,4.8,��
2021/08/04,10:00,0.611,0.916,0.580,1.101,0.790,0.370,0.638,0.594,��쓌,4.6,��
2021/08/04,10:10,0.612,0.914,0.580,1.103,0.789,0.370,0.637,0.593,��쓌,4.1,��
2021/08/04,10:20,0.615,0.915,0.581,1.103,0.791,0.370,0.637,0.594,��쓌,4.3,��
2021/08/04,10:30,0.613,0.916,0.582,1.104,0.789,0.371,0.637,0.595,��쓌,3.9,��
2021/08/04,10:40,0.613,0.917,0.582,1.103,0.791,0.371,0.637,0.594,�쓌,4.0,��
2021/08/04,10:50,0.612,0.916,0.582,1.103,0.791,0.371,0.637,0.593,�쓌,5.0,��
2021/08/04,11:00,0.614,0.916,0.582,1.103,0.794,0.370,0.638,0.596,��쓌,5.6,��
2021/08/04,11:10,0.615,0.918,0.582,1.102,0.794,0.372,0.638,0.595,��쓌,6.3,��
2021/08/04,11:20,0.614,0.920,0.582,1.098,0.795,0.371,0.640,0.595,��쓌,5.6,��
2021/08/04,11:30,0.615,0.918,0.582,1.099,0.792,0.371,0.637,0.594,��쓌,5.9,��
2021/08/04,11:40,0.614,0.917,0.583,1.099,0.793,0.372,0.637,0.595,��쓌,7.3,��
2021/08/04,11:50,0.613,0.918,0.584,1.098,0.796,0.372,0.637,0.595,��,7.2,��
2021/08/04,12:00,0.615,0.916,0.583,1.101,0.794,0.372,0.639,0.596,��,6.1,��
2021/08/04,12:10,0.613,0.918,0.581,1.102,0.794,0.370,0.638,0.596,��,5.7,��
2021/08/04,12:20,0.613,0.920,0.584,1.102,0.796,0.371,0.638,0.597,��,5.3,��
2021/08/04,12:30,0.613,0.918,0.583,1.100,0.794,0.370,0.640,0.596,��쓌,5.8,��
2021/08/04,12:40,0.616,0.920,0.583,1.099,0.797,0.370,0.640,0.597,��,4.4,��
2021/08/04,12:50,0.615,0.919,0.584,1.102,0.797,0.372,0.640,0.598,��,5.4,��
2021/08/04,13:00,0.615,0.918,0.583,1.101,0.798,0.372,0.641,0.599,��,5.9,��
2021/08/04,13:10,0.616,0.921,0.583,1.103,0.797,0.373,0.641,0.597,��,5.8,��
2021/08/04,13:20,0.615,0.919,0.584,1.103,0.795,0.372,0.640,0.599,��쓌,4.9,��
2021/08/04,13:30,0.615,0.921,0.582,1.103,0.797,0.372,0.640,0.597,��쓌,5.7,��
2021/08/04,13:40,0.614,0.919,0.583,1.100,0.799,0.371,0.641,0.599,��,5.6,��
2021/08/04,13:50,0.616,0.921,0.585,1.103,0.797,0.372,0.641,0.597,��쓌,5.2,��
2021/08/04,14:00,0.615,0.923,0.584,1.103,0.799,0.371,0.641,0.596,��,5.2,��
2021/08/04,14:10,0.616,0.919,0.584,1.103,0.797,0.371,0.642,0.597,��,5.3,��
2021/08/04,14:20,0.616,0.919,0.584,1.103,0.797,0.373,0.642,0.596,��,6.4,��
2021/08/04,14:30,0.617,0.920,0.584,1.104,0.798,0.372,0.641,0.596,��,6.2,��
2021/08/04,14:40,0.617,0.919,0.585,1.102,0.799,0.373,0.641,0.599,��,5.4,��
2021/08/04,14:50,0.616,0.923,0.583,1.105,0.798,0.373,0.643,0.596,��,4.1,��
2021/08/04,15:00,0.615,0.920,0.583,1.105,0.799,0.371,0.642,0.595,��,4.6,��
2021/08/04,15:10,0.616,0.921,0.583,1.106,0.801,0.370,0.640,0.596,��,5.0,��
2021/08/04,15:20,0.617,0.924,0.584,1.109,0.799,0.371,0.643,0.596,��,5.3,��
2021/08/04,15:30,0.616,0.922,0.583,1.107,0.800,0.369,0.641,0.595,��,5.2,��
2021/08/04,15:40,0.614,0.923,0.584,1.108,0.800,0.369,0.641,0.593,��,6.0,��
2021/08/04,15:50,0.615,0.923,0.586,1.109,0.800,0.369,0.640,0.596,��,5.5,��
2021/08/04,16:00,0.616,0.923,0.586,1.110,0.799,0.372,0.641,0.594,��,5.4,��
2021/08/04,16:10,0.616,0.922,0.584,1.107,0.800,0.371,0.640,0.595,��쐼,3.7,��
2021/08/04,16:20,0.615,0.923,0.583,1.110,0.800,0.370,0.641,0.596,��,3.4,��
2021/08/04,16:30,0.615,0.922,0.583,1.110,0.797,0.370,0.640,0.594,��,3.5,��
2021/08/04,16:40,0.616,0.923,0.584,1.110,0.799,0.370,0.639,0.596,��쐼,2.9,��
2021/08/04,16:50,0.616,0.920,0.583,1.109,0.798,0.369,0.641,0.596,��쐼,3.0,��
2021/08/04,17:00,0.613,0.921,0.582,1.108,0.797,0.369,0.640,0.596,��,3.6,��
2021/08/04,17:10,0.615,0.921,0.583,1.105,0.797,0.369,0.639,0.596,��,5.0,��
2021/08/04,17:20,0.616,0.921,0.582,1.107,0.797,0.369,0.637,0.597,��,6.3,��
2021/08/04,17:30,0.616,0.919,0.581,1.108,0.799,0.370,0.641,0.596,��,6.6,��
2021/08/04,17:40,0.615,0.921,0.584,1.108,0.798,0.369,0.638,0.595,��,5.9,��
2021/08/04,17:50,0.616,0.920,0.582,1.109,0.797,0.369,0.639,0.596,��,6.5,��
2021/08/04,18:00,0.615,0.920,0.583,1.107,0.797,0.369,0.640,0.597,��,6.5,��
2021/08/04,18:10,0.614,0.921,0.583,1.105,0.797,0.370,0.639,0.596,��,5.2,��
2021/08/04,18:20,0.613,0.921,0.584,1.109,0.796,0.368,0.639,0.596,��,5.2,��
2021/08/04,18:30,0.616,0.919,0.584,1.107,0.798,0.368,0.639,0.595,��,5.9,��
2021/08/04,18:40,0.617,0.919,0.582,1.107,0.798,0.371,0.638,0.596,��,6.6,��
2021/08/04,18:50,0.613,0.919,0.584,1.108,0.799,0.369,0.639,0.595,��,6.3,��
2021/08/04,19:00,0.614,0.920,0.582,1.107,0.797,0.371,0.639,0.596,��,5.9,��
2021/08/04,19:10,0.614,0.920,0.583,1.108,0.795,0.370,0.638,0.597,��,5.2,��
2021/08/04,19:20,0.614,0.920,0.583,1.108,0.798,0.372,0.639,0.596,��,4.9,��
2021/08/04,19:30,0.617,0.922,0.582,1.109,0.798,0.371,0.641,0.595,��쐼,6.0,��
2021/08/04,19:40,0.616,0.921,0.584,1.108,0.798,0.370,0.639,0.597,��,5.8,��
2021/08/04,19:50,0.615,0.923,0.584,1.106,0.798,0.371,0.639,0.597,��,3.9,��
2021/08/04,20:00,0.616,0.924,0.584,1.107,0.798,0.370,0.640,0.596,��,3.9,��
2021/08/04,20:10,0.615,0.922,0.584,1.107,0.798,0.370,0.640,0.596,��,4.9,��
2021/08/04,20:20,0.616,0.922,0.583,1.106,0.799,0.370,0.640,0.597,��,5.8,��
2021/08/04,20:30,0.617,0.922,0.584,1.107,0.798,0.370,0.639,0.596,��,5.8,��
2021/08/04,20:40,0.616,0.924,0.582,1.107,0.796,0.370,0.641,0.598,��,6.5,��
2021/08/04,20:50,0.618,0.922,0.583,1.107,0.798,0.371,0.639,0.594,��,5.3,��
2021/08/04,21:00,0.618,0.921,0.582,1.107,0.800,0.371,0.640,0.597,��,4.2,��
2021/08/04,21:10,0.615,0.925,0.583,1.107,0.801,0.371,0.639,0.595,��쐼,3.7,��
2021/08/04,21:20,0.618,0.922,0.583,1.109,0.799,0.372,0.639,0.597,��쐼,4.1,��
2021/08/04,21:30,0.618,0.922,0.584,1.108,0.799,0.372,0.639,0.598,��,4.3,��
2021/08/04,21:40,0.615,0.924,0.584,1.109,0.800,0.372,0.641,0.596,��,4.5,��
2021/08/04,21:50,0.616,0.923,0.584,1.108,0.798,0.369,0.640,0.597,��쐼,5.1,��
2021/08/04,22:00,0.615,0.923,0.584,1.109,0.798,0.372,0.640,0.597,��쐼,5.5,��
2021/08/04,22:10,0.617,0.923,0.584,1.105,0.797,0.372,0.641,0.598,��,5.0,��
2021/08/04,22:20,0.617,0.923,0.584,1.108,0.797,0.371,0.640,0.595,��,5.2,��
2021/08/04,22:30,0.615,0.923,0.584,1.108,0.799,0.371,0.641,0.596,��,5.5,��
2021/08/04,22:40,0.617,0.923,0.585,1.108,0.800,0.371,0.641,0.598,��,5.4,��
2021/08/04,22:50,0.617,0.923,0.584,1.107,0.798,0.371,0.639,0.596,��,5.1,��
2021/08/04,23:00,0.616,0.923,0.583,1.110,0.797,0.372,0.639,0.597,��쐼,4.8,��
2021/08/04,23:10,0.615,0.921,0.583,1.109,0.799,0.371,0.639,0.597,��쐼,4.7,��
2021/08/04,23:20,0.617,0.923,0.584,1.110,0.799,0.371,0.639,0.596,��쐼,5.2,��
2021/08/04,23:30,0.615,0.925,0.585,1.109,0.800,0.372,0.640,0.597,��쐼,5.1,��
2021/08/04,23:40,0.616,0.925,0.585,1.107,0.798,0.371,0.639,0.598,��쐼,3.9,��
2021/08/04,23:50,0.617,0.924,0.584,1.108,0.798,0.372,0.639,0.597,��,3.8,��
